• In Uzbekistan
  • List of Countries
  • For 7 days
  • Water Temperature
  • Satellite Maps
  • Weather Map
  • Weather Widgets
  • user-avatar
    Login

    Hourly Weather Starica

    Today, 22 July, Sunday

    Time Temperature Precipitation Wind Pressure Humidity
    00:00 +20°C° 0 mm 4 mps 742 mmHg 94%
    01:00 +19°C° 0 mm 4 mps 742 mmHg 95%
    02:00 +19°C° 0 mm 3 mps 742 mmHg 95%
    03:00 +18°C° 0 mm 3 mps 742 mmHg 96%
    04:00 +19°C° 0 mm 3 mps 742 mmHg 95%
    05:00 +19°C° 0 mm 4 mps 742 mmHg 93%
    06:00 +19°C° 0 mm 4 mps 743 mmHg 92%
    07:00 +20°C° 0 mm 4 mps 743 mmHg 88%
    08:00 +21°C° 0 mm 5 mps 743 mmHg 85%
    09:00 +23°C° 0 mm 5 mps 743 mmHg 81%
    10:00 +23°C° 0.1 mm 5 mps 743 mmHg 81%
    11:00 +23°C° 0.1 mm 6 mps 743 mmHg 80%
    12:00 +23°C° 0.1 mm 6 mps 743 mmHg 80%
    13:00 +23°C° 0.1 mm 6 mps 743 mmHg 79%
    14:00 +24°C° 0.1 mm 6 mps 743 mmHg 78%
    15:00 +24°C° 0.1 mm 7 mps 743 mmHg 77%
    16:00 +23°C° 0.1 mm 6 mps 743 mmHg 79%
    17:00 +22°C° 0.1 mm 6 mps 743 mmHg 81%
    18:00 +21°C° 0.1 mm 6 mps 743 mmHg 84%
    19:00 +21°C° 0 mm 6 mps 743 mmHg 84%
    20:00 +20°C° 0 mm 6 mps 743 mmHg 84%
    21:00 +20°C° 0 mm 6 mps 743 mmHg 85%
    22:00 +20°C° 0 mm 6 mps 743 mmHg 85%
    23:00 +19°C° 0 mm 6 mps 744 mmHg 85%

    Tomorrow, 23 July, Monday

    Time Temperature Precipitation Wind Pressure Humidity
    00:00 +19°C° 0 mm 6 mps 744 mmHg 85%
    01:00 +17°C° 0.1 mm 6 mps 743 mmHg 85%
    02:00 +17°C° 0.1 mm 6 mps 743 mmHg 86%
    03:00 +16°C° 0.1 mm 5 mps 743 mmHg 86%
    04:00 +16°C° 0.5 mm 5 mps 743 mmHg 86%
    05:00 +16°C° 0.5 mm 5 mps 744 mmHg 87%
    06:00 +16°C° 0.5 mm 5 mps 744 mmHg 87%
    07:00 +17°C° 0.1 mm 6 mps 744 mmHg 85%
    08:00 +19°C° 0.1 mm 6 mps 744 mmHg 82%
    09:00 +20°C° 0.1 mm 6 mps 744 mmHg 80%
    10:00 +21°C° 0.1 mm 6 mps 744 mmHg 78%
    11:00 +23°C° 0.1 mm 6 mps 744 mmHg 76%
    12:00 +24°C° 0.1 mm 6 mps 744 mmHg 74%
    13:00 +24°C° 0.9 mm 6 mps 744 mmHg 75%
    14:00 +26°C° 0.9 mm 6 mps 744 mmHg 76%
    15:00 +26°C° 0.9 mm 5 mps 744 mmHg 77%
    16:00 +25°C° 0.2 mm 5 mps 744 mmHg 80%
    17:00 +23°C° 0.2 mm 5 mps 744 mmHg 82%
    18:00 +23°C° 0.2 mm 5 mps 744 mmHg 85%
    19:00 +22°C° 0.1 mm 5 mps 744 mmHg 85%
    20:00 +21°C° 0.1 mm 6 mps 745 mmHg 86%
    21:00 +21°C° 0.1 mm 6 mps 745 mmHg 86%
    22:00 +20°C° 0 mm 6 mps 745 mmHg 86%
    23:00 +20°C° 0 mm 5 mps 745 mmHg 86%

    Day after tomorrow, 24 July, Tuesday

    Time Temperature Precipitation Wind Pressure Humidity
    00:00 +19°C° 0 mm 5 mps 745 mmHg 85%
    01:00 +19°C° 0 mm 5 mps 745 mmHg 87%
    02:00 +19°C° 0 mm 4 mps 745 mmHg 88%
    03:00 +18°C° 0 mm 4 mps 745 mmHg 90%
    04:00 +18°C° 0 mm 4 mps 746 mmHg 89%
    05:00 +18°C° 0 mm 4 mps 746 mmHg 88%
    06:00 +18°C° 0 mm 4 mps 746 mmHg 87%
    07:00 +20°C° 0 mm 4 mps 746 mmHg 83%
    08:00 +21°C° 0 mm 5 mps 746 mmHg 78%
    09:00 +22°C° 0 mm 5 mps 747 mmHg 74%
    10:00 +23°C° 0 mm 5 mps 747 mmHg 70%
    11:00 +26°C° 0 mm 5 mps 747 mmHg 66%
    12:00 +27°C° 0 mm 6 mps 747 mmHg 63%
    13:00 +27°C° 0 mm 6 mps 747 mmHg 63%
    14:00 +27°C° 0 mm 6 mps 747 mmHg 63%
    15:00 +27°C° 0 mm 6 mps 747 mmHg 63%
    16:00 +27°C° 0.1 mm 5 mps 748 mmHg 65%
    17:00 +26°C° 0.1 mm 4 mps 748 mmHg 67%
    18:00 +25°C° 0.1 mm 4 mps 748 mmHg 69%
    19:00 +25°C° 0 mm 4 mps 748 mmHg 68%
    20:00 +23°C° 0 mm 5 mps 748 mmHg 67%
    21:00 +22°C° 0 mm 5 mps 749 mmHg 65%
    22:00 +21°C° 0 mm 5 mps 749 mmHg 64%
    23:00 +21°C° 0 mm 4 mps 749 mmHg 64%

    25 July, Wednesday

    Time Temperature Precipitation Wind Pressure Humidity
    00:00 +20°C° 0 mm 4 mps 749 mmHg 63%
    01:00 +20°C° 0 mm 4 mps 749 mmHg 60%
    02:00 +20°C° 0 mm 5 mps 749 mmHg 58%
    03:00 +20°C° 0 mm 5 mps 749 mmHg 55%
    04:00 +20°C° 0 mm 5 mps 749 mmHg 59%
    05:00 +19°C° 0 mm 5 mps 749 mmHg 64%
    06:00 +19°C° 0 mm 5 mps 749 mmHg 68%
    07:00 +20°C° 0 mm 5 mps 750 mmHg 66%
    08:00 +22°C° 0 mm 6 mps 750 mmHg 64%
    09:00 +23°C° 0 mm 6 mps 750 mmHg 62%
    10:00 +24°C° 0 mm 6 mps 750 mmHg 58%
    11:00 +26°C° 0 mm 6 mps 750 mmHg 54%
    12:00 +27°C° 0 mm 6 mps 751 mmHg 50%
    13:00 +27°C° 0 mm 6 mps 751 mmHg 51%
    14:00 +27°C° 0 mm 6 mps 751 mmHg 52%
    15:00 +27°C° 0 mm 5 mps 751 mmHg 54%
    16:00 +27°C° 0 mm 5 mps 751 mmHg 57%
    17:00 +27°C° 0 mm 4 mps 751 mmHg 60%
    18:00 +26°C° 0 mm 3 mps 751 mmHg 64%
    19:00 +25°C° 0 mm 4 mps 751 mmHg 64%
    20:00 +23°C° 0 mm 4 mps 751 mmHg 65%
    21:00 +22°C° 0 mm 4 mps 751 mmHg 66%
    22:00 +21°C° 0 mm 4 mps 751 mmHg 67%
    23:00 +21°C° 0 mm 4 mps 751 mmHg 67%

    26 July, Thursday

    Time Temperature Precipitation Wind Pressure Humidity
    00:00 +20°C° 0 mm 4 mps 751 mmHg 68%
    01:00 +20°C° 0 mm 4 mps 751 mmHg 71%
    02:00 +20°C° 0 mm 4 mps 752 mmHg 73%
    03:00 +19°C° 0 mm 4 mps 752 mmHg 76%
    04:00 +20°C° 0 mm 4 mps 752 mmHg 75%
    05:00 +20°C° 0 mm 5 mps 752 mmHg 74%
    06:00 +21°C° 0 mm 5 mps 752 mmHg 74%
    07:00 +22°C° 0 mm 5 mps 752 mmHg 71%
    08:00 +23°C° 0 mm 6 mps 752 mmHg 68%
    09:00 +24°C° 0 mm 6 mps 752 mmHg 66%
    10:00 +24°C° 0 mm 6 mps 752 mmHg 67%
    11:00 +25°C° 0 mm 5 mps 752 mmHg 67%
    12:00 +26°C° 0 mm 5 mps 752 mmHg 68%
    13:00 +26°C° 0 mm 5 mps 753 mmHg 66%
    14:00 +27°C° 0 mm 5 mps 753 mmHg 63%
    15:00 +28°C° 0 mm 6 mps 753 mmHg 61%
    16:00 +28°C° 0 mm 5 mps 753 mmHg 62%
    17:00 +28°C° 0 mm 5 mps 753 mmHg 64%
    18:00 +28°C° 0 mm 5 mps 753 mmHg 66%
    19:00 +27°C° 0 mm 4 mps 753 mmHg 69%
    20:00 +25°C° 0 mm 4 mps 753 mmHg 73%
    21:00 +23°C° 0 mm 4 mps 753 mmHg 76%
    22:00 +22°C° 0 mm 4 mps 754 mmHg 76%
    23:00 +22°C° 0 mm 4 mps 754 mmHg 77%

    27 July, Friday

    Time Temperature Precipitation Wind Pressure Humidity
    00:00 +21°C° 0 mm 4 mps 754 mmHg 77%
    01:00 +21°C° 0 mm 4 mps 754 mmHg 78%
    02:00 +20°C° 0 mm 3 mps 754 mmHg 78%
    03:00 +20°C° 0 mm 3 mps 754 mmHg 78%
    04:00 +20°C° 0 mm 3 mps 754 mmHg 79%
    05:00 +20°C° 0 mm 4 mps 754 mmHg 79%
    06:00 +20°C° 0 mm 4 mps 755 mmHg 79%
    07:00 +22°C° 0 mm 4 mps 755 mmHg 75%
    08:00 +25°C° 0 mm 4 mps 755 mmHg 71%
    09:00 +27°C° 0 mm 4 mps 755 mmHg 66%
    10:00 +28°C° 0 mm 4 mps 755 mmHg 61%
    11:00 +29°C° 0 mm 4 mps 755 mmHg 56%
    12:00 +30°C° 0 mm 4 mps 755 mmHg 51%
    13:00 +30°C° 0 mm 4 mps 754 mmHg 51%
    14:00 +30°C° 0 mm 4 mps 754 mmHg 51%
    15:00 +30°C° 0 mm 4 mps 754 mmHg 51%
    16:00 +30°C° 0.4 mm 4 mps 754 mmHg 57%
    17:00 +29°C° 0.4 mm 4 mps 754 mmHg 63%
    18:00 +28°C° 0.4 mm 3 mps 754 mmHg 69%
    19:00 +26°C° 0.1 mm 3 mps 754 mmHg 74%
    20:00 +25°C° 0.1 mm 3 mps 754 mmHg 78%
    21:00 +22°C° 0.1 mm 3 mps 754 mmHg 83%
    22:00 +21°C° 0 mm 3 mps 754 mmHg 84%
    23:00 +21°C° 0 mm 3 mps 754 mmHg 86%
    Show more